www.pogodaiklimat.ru

Погода и климат >> Архив погоды >> Норвегия >> Конгсберг Браннстас


ПОГОДА в Конгсберг Браннстас

  • Прогноз погоды в Конгсберг Браннстас
  • Монитор погоды в Конгсберг Браннстас

АРХИВ ПОГОДЫ в Конгсберг Браннстас

Время (UTC), дата Ветер
(напр.,м/с)
 
Видим.   Явления Облачность Т
(С)
Тd
(С)
f
(%)
Тe
(С)
Тes
(С)
Комфортность P
(гПа)
Po
(гПа)
Тmin
(С)
Tmax
(С)
R
(мм)
R24
(мм)
S
(см)
16 12.06 С 2 н/о н/о +8.6 +7.4 92 +7 +7 1021.0 1000.0
17 12.06 СВ 1 н/о н/о +9.0 +7.5 90 +8 +8 1020.3 999.2
18 12.06 С 3 15 км дождь 10/5 600 м
[Frnb As op]
+8.7 +7.4 92 +6 +6 1019.6 998.6 +8.5 +11.9 70
19 12.06 СВ 2 н/о н/о +8.6 +7.7 94 +7 +7 1019.1 998.0
20 12.06 СВ 2 н/о н/о +8.4 +7.6 95 +6 +6 1018.8 997.8
21 12.06 СВ 2 н/о н/о +8.4 +7.6 95 +6 +6 1018.0 997.0
22 12.06 СВ 2 н/о н/о +8.5 +7.6 94 +6 +6 1017.2 996.2
23 12.06 СВ 3 н/о н/о +8.6 +7.6 93 +6 +6 1015.6 994.7
00 13.06 СВ 2 н/о н/о +8.5 +7.7 95 +6 +6 1014.4 993.4
01 13.06 СВ 1 н/о н/о +8.4 +7.8 96 +7 +7 1014.0 993.1
02 13.06 В 2 н/о н/о +8.3 +7.7 96 +6 +6 1012.0 991.0
03 13.06 СВ 1 н/о н/о +8.4 +7.7 95 +8 +8 1010.7 989.8
04 13.06 В 2 н/о н/о +8.5 +7.8 95 +6 +6 1011.2 990.3
05 13.06 СВ 1 н/о н/о +8.6 +7.8 95 +8 +8 1010.6 989.7
06 13.06 СВ 1 н/о н/о +8.9 +8.3 96 +8 +8 1010.4 989.5 +8.2 +8.9
07 13.06 СВ 2 н/о н/о +9.1 +8.4 95 +7 +7 1010.2 989.3
08 13.06 СВ 2 н/о н/о +9.5 +8.9 96 +8 +8 1010.4 989.5
09 13.06 СВ 1 н/о н/о +9.8 +9.1 95 +9 +9 1010.7 989.9
10 13.06 СВ 2 н/о н/о +10.4 +9.7 95 +9 +9 1011.0 990.2
11 13.06 С 2 н/о н/о +10.5 +9.7 95 +9 +9 1011.5 990.7
12 13.06 В 1 4000 м морось 10/5 1500 м
[Frnb As op]
+11.0 +10.1 94 +11 +12 1011.9 991.2
13 13.06 С 1 н/о н/о +11.6 +10.6 94 +11 +11 1012.2 991.5
14 13.06 СВ 1 н/о н/о +12.1 +10.7 91 +12 +12 1012.2 991.5
15 13.06 штиль 0 н/о н/о +12.5 +11.3 92 +12 +12 1012.9 992.3
16 13.06 В 1 н/о н/о +13.2 +12.0 92 +13 +13 1013.1 992.5
17 13.06 Ю 1 н/о н/о +14.6 +11.8 83 +15 +15 1013.1 992.6
18 13.06 С 1 65 км {морось} 5/5 1500 м
[Sc]
+13.9 +11.9 88 +14 +15 1013.9 993.4 +8.8 +14.9 16
19 13.06 С 2 н/о н/о +13.2 +11.9 92 +12 +12 1014.8 994.2
20 13.06 В 1 н/о н/о +12.7 +11.6 93 +13 +13 1015.4 994.7
21 13.06 СЗ 1 н/о н/о +12.5 +11.3 92 +12 +12 1016.1 995.4
22 13.06 СЗ 1 н/о н/о +11.9 +11.0 94 +12 +12 1016.6 995.8
23 13.06 СЗ 1 н/о н/о +11.1 +10.6 97 +11 +11 1016.8 995.9
00 14.06 З 1 н/о н/о +10.6 +10.1 97 +10 +10 1016.8 995.9
01 14.06 З 1 н/о н/о +10.6 +10.1 97 +10 +10 1017.3 996.4
02 14.06 СВ 1 н/о н/о +10.9 +10.4 97 +10 +10 1017.6 996.8
03 14.06 СЗ 1 н/о н/о +10.5 +10.0 97 +10 +10 1017.7 996.8
04 14.06 С 1 н/о н/о +11.1 +10.7 97 +11 +11 1017.6 996.8
05 14.06 З 1 н/о н/о +11.7 +11.1 96 +11 +11 1017.9 997.1
06 14.06 СВ 2 23 км {морось} 10/1 1500 м
[Frnb As op]
+12.9 +11.2 89 +12 +13 1017.7 996.9 +10.4 +13.8 0.1
07 14.06 СВ 2 н/о н/о +13.0 +11.0 88 +12 +12 1018.2 997.5
08 14.06 СВ 2 н/о н/о +12.6 +11.8 95 +12 +12 1018.4 997.7
09 14.06 С 2 н/о н/о +12.6 +11.6 94 +12 +12 1018.7 997.9
10 14.06 С 1 н/о н/о +12.8 +11.9 94 +13 +13 1018.9 998.1
11 14.06 С 1 н/о н/о +12.8 +12.2 96 +13 +13 1019.4 998.6
12 14.06 С 2 4000 м сильн. дождь 10/5 600 м
[Frnb As op]
+14.1 +12.8 92 +14 +15 1019.1 998.4
13 14.06 СВ 2 н/о н/о +15.1 +12.4 84 +15 +15 1018.9 998.4
14 14.06 СВ 1 н/о н/о +15.9 +13.0 83 +17 +17 1018.7 998.2
15 14.06 СВ 2 н/о н/о +15.5 +13.3 87 +15 +15 1018.5 998.0
16 14.06 В 1 н/о н/о +17.2 +12.1 72 +18 +18 1018.0 997.5
17 14.06 В 1 н/о н/о +17.5 +11.8 69 +19 +19 1017.6 997.2
18 14.06 В 1 30 км слаб. дождь 8/4 600 м
[Sc diur, vesp Ac trans Cs]
+16.7 +11.7 72 +18 +18 1017.9 997.4 +12.3 +18.0 13
19 14.06 штиль 0 н/о н/о +15.5 +14.0 91 +15 +15 1018.5 997.9
20 14.06 В 1 н/о н/о +14.4 +11.7 84 +15 +15 1018.7 998.0
21 14.06 штиль 0 н/о н/о +12.3 +11.2 93 +12 +12 1019.5 998.7
22 14.06 Ю 1 н/о н/о +11.3 +10.4 94 +11 +11 1019.8 998.9
23 14.06 С 1 н/о н/о +11.1 +10.3 95 +11 +11 1020.2 999.3
00 15.06 З 1 н/о н/о +9.9 +9.3 96 +9 +9 1020.2 999.2
01 15.06 З 1 н/о н/о +9.2 +8.7 97 +8 +8 1020.3 999.3
02 15.06 С 2 н/о н/о +9.3 +8.7 96 +7 +7 1020.0 999.0
03 15.06 С 1 н/о н/о +8.6 +8.2 97 +8 +8 1020.2 999.1
04 15.06 С 1 н/о н/о +8.6 +8.3 98 +8 +8 1020.2 999.1
05 15.06 СВ 1 н/о н/о +9.4 +9.1 98 +9 +9 1020.1 999.1
06 15.06 С 2 2000 м мгла 6/4 50 м
[St Ac As]
+11.7 +10.8 94 +10 +12 1019.8 998.9 +8.5 +16.7
07 15.06 СВ 2 н/о н/о +14.0 +10.8 81 +13 +13 1019.3 998.6
08 15.06 С 2 н/о н/о +16.6 +11.2 70 +17 +17 1019.1 998.6
09 15.06 С 2 н/о н/о +19.0 +9.4 54 +20 +20 1018.4 998.1
10 15.06 С 3 н/о н/о +20.7 +9.7 49 +23 +23 комфорт 1018.2 998.0
11 15.06 В 2 н/о н/о +21.1 +10.1 49 +23 +23 комфорт 1017.6 997.5
12 15.06 В 2 55 км 3/3 600 м
[Cu hum]
+21.9 +9.7 46 +23 +33 комфорт 1016.6 996.5
13 15.06 В 2 н/о н/о +22.8 +9.8 44 +25 +25 комфорт 1016.2 996.2
14 15.06 В 2 н/о н/о +23.3 +10.3 44 +25 +25 комфорт 1015.5 995.6
15 15.06 ЮВ 2 н/о н/о +23.1 +10.3 44 +25 +25 комфорт 1015.1 995.2
16 15.06 ЮВ 2 н/о н/о +23.0 +10.5 45 +25 +25 комфорт 1014.6 994.6
17 15.06 ЮВ 1 н/о н/о +22.1 +11.1 50 +24 +24 комфорт 1014.3 994.3
18 15.06 штиль 0 55 км 6/4 600 м
[Cb calv As op]
+21.3 +12.0 55 +23 +24 комфорт 1014.2 994.2 +11.8 +24.0
19 15.06 З 1 н/о н/о +19.9 +13.8 68 +23 +23 комфорт 1014.2 994.0
20 15.06 З 1 н/о н/о +18.9 +13.4 70 +21 +21 комфорт 1013.9 993.7
21 15.06 З 1 н/о н/о +18.2 +12.8 71 +20 +20 1013.8 993.6
22 15.06 СЗ 1 н/о н/о +17.1 +13.3 78 +18 +18 1014.0 993.6
23 15.06 С 1 н/о н/о +16.8 +13.2 79 +18 +18 1014.2 993.8
00 16.06 С 1 н/о н/о +16.2 +13.2 82 +17 +17 1014.0 993.6
01 16.06 н/о н/о +15.6 +13.2 86 1013.3 992.9
02 16.06 штиль 0 н/о н/о +14.9 +13.1 89 +15 +15 1012.7 992.3
03 16.06 С 1 н/о н/о +14.9 +13.1 89 +15 +15 1012.8 992.3
04 16.06 штиль 0 н/о н/о +14.7 +13.0 90 +14 +14 1012.7 992.2
05 16.06 ЮЗ 1 н/о н/о +15.0 +13.2 89 +15 +15 1012.7 992.3
06 16.06 СВ 1 55 км 10/8 600 м
[Sc Ac As]
+15.4 +13.3 87 +16 +16 1012.8 992.4 +14.7 +21.3 0.0
07 16.06 СВ 1 н/о н/о +15.5 +13.6 88 +16 +16 1013.0 992.6
08 16.06 Ю 1 н/о н/о +15.9 +14.4 91 +17 +17 1013.1 992.7
09 16.06 В 1 н/о н/о +16.2 +12.9 81 +17 +17 1013.3 992.9
10 16.06 В 1 н/о н/о +15.8 +12.3 80 +16 +16 1013.4 993.0
11 16.06 В 1 н/о н/о +15.4 +12.5 83 +16 +16 1013.8 993.4
12 16.06 С 2 10 км морось {туман} 10/6 200 м
[Frnb As op]
+15.3 +13.5 89 +15 +16 1013.7 993.3
13 16.06 С 2 н/о н/о +15.4 +13.9 91 +15 +15 1013.9 993.5
14 16.06 СВ 1 н/о н/о +15.5 +14.1 91 +16 +16 1013.9 993.4
15 16.06 Ю 1 н/о н/о +15.7 +14.5 93 +16 +16 1014.1 993.6
16 16.06 ЮВ 1 н/о н/о +17.4 +14.5 83 +18 +18 1013.5 993.2
17 16.06 ЮВ 2 н/о н/о +17.9 +14.1 78 +18 +18 1013.3 993.0
18 16.06 ЮВ 1 55 км 8/4 600 м
[Cu hum As trans Cs]
+18.1 +14.5 79 +19 +19 1013.4 993.1 +15.1 +18.5 0.4
19 16.06 СВ 1 н/о н/о +17.5 +14.5 83 +19 +19 1013.3 993.0
20 16.06 С 1 н/о н/о +16.3 +14.0 86 +17 +17 1013.2 992.9
21 16.06 СЗ 1 н/о н/о +14.2 +13.0 92 +14 +14 1013.6 993.0
22 16.06 ЮЗ 1 н/о н/о +12.2 +11.3 94 +12 +12 1013.8 993.1
23 16.06 З 1 н/о н/о +11.2 +10.3 94 +11 +11 1014.0 993.3
00 17.06 З 1 н/о н/о +10.3 +9.4 94 +10 +10 1014.4 993.6
01 17.06 ЮЗ 1 н/о н/о +9.3 +8.6 95 +9 +9 1014.4 993.5
02 17.06 З 1 н/о н/о +9.1 +8.4 95 +8 +8 1014.8 993.9
03 17.06 С 1 н/о н/о +9.2 +8.6 96 +8 +8 1015.0 994.1
04 17.06 З 1 н/о н/о +11.3 +9.9 91 +11 +11 1015.2 994.5
05 17.06 В 1 н/о н/о +13.5 +9.7 78 +14 +14 1015.3 994.7
06 17.06 З 2 >70 км ясно +15.6 +7.1 57 +16 +20 1015.2 994.7 +8.9 +18.1
07 17.06 З 2 н/о н/о +17.4 +5.0 44 +18 +18 1015.1 994.8
08 17.06 ЮЗ 2 н/о н/о +18.8 +4.2 38 +20 +20 1015.1 994.8
09 17.06 ЮЗ 3 н/о н/о +19.5 +5.3 39 +20 +20 1015.2 995.0
10 17.06 ЮЗ 2 н/о н/о +20.0 +6.0 40 +21 +21 комфорт 1015.0 994.8
11 17.06 ЮЗ 2 н/о н/о +20.6 +6.0 39 +22 +22 комфорт 1014.9 994.8
12 17.06 Ю 3 >70 км 5/1 1000 м
[Cu hum Ac cuf Cs]
+21.6 +7.6 40 +23 +31 комфорт 1014.6 994.5
13 17.06 Ю 3 н/о н/о +21.6 +7.8 41 +23 +23 комфорт 1014.5 994.4
14 17.06 ЮЗ 3 н/о н/о +20.6 +8.8 47 +22 +22 комфорт 1014.8 994.6
15 17.06 Ю 3 н/о н/о +20.7 +9.2 48 +23 +23 комфорт 1014.4 994.3
16 17.06 Ю 2 н/о н/о +18.6 +11.1 62 +20 +20 1014.4 994.2
17 17.06 Ю 2 н/о н/о +18.1 +11.4 65 +19 +19 1014.2 993.9
18 17.06 Ю 2 >70 км 8/1 600 м
[Sc diur, vesp Ac cast Cs]
+17.5 +10.3 63 +18 +19 1014.2 993.9 +15.6 +22.0
19 17.06 Ю 2 н/о н/о +16.8 +11.0 69 +17 +17 1014.2 993.8
20 17.06 Ю 2 н/о н/о +15.5 +10.2 71 +15 +15 1014.7 994.2
21 17.06 Ю 1 н/о н/о +14.7 +9.9 73 +15 +15 1015.2 994.6
22 17.06 Ю 2 н/о н/о +13.6 +9.5 76 +13 +13 1015.1 994.5
23 17.06 Ю 2 н/о н/о +13.5 +9.3 76 +13 +13 1015.2 994.6
00 18.06 Ю 1 н/о н/о +11.2 +8.8 85 +11 +11 1015.2 994.4
01 18.06 З 1 н/о н/о +9.6 +8.3 92 +9 +9 1015.3 994.4
02 18.06 З 1 н/о н/о +9.0 +8.0 93 +8 +8 1015.1 994.2
03 18.06 З 1 н/о н/о +9.2 +8.2 93 +8 +8 1015.0 994.0
04 18.06 З 1 н/о н/о +10.3 +8.7 90 +10 +10 1014.7 993.8
05 18.06 ЮВ 1 н/о н/о +12.5 +9.7 83 +13 +13 1014.4 993.7
06 18.06 ЮВ 2 30 км 9/3 600 м
[Sc diur, vesp Ac As Cs]
+13.4 +9.7 78 +13 +14 1013.9 993.3 +8.5 +17.5
07 18.06 ЮВ 3 н/о н/о +14.0 +10.1 77 +13 +13 1013.6 993.0
08 18.06 ЮВ 3 н/о н/о +15.0 +10.7 75 +14 +14 1013.3 992.9
09 18.06 Ю 2 н/о н/о +16.8 +10.7 67 +17 +17 1013.0 992.7
10 18.06 Ю 2 н/о н/о +18.2 +10.4 60 +19 +19 1012.6 992.4
11 18.06 Ю 2 н/о н/о +19.4 +9.4 52 +21 +21 комфорт 1012.1 992.0
12 18.06 ЮЗ 2 30 км 8/4 300 м
[Sc Ac As Cs]
+20.2 +10.1 52 +22 +28 комфорт 1011.8 991.7
13 18.06 Ю 2 н/о н/о +20.1 +9.4 50 +22 +22 комфорт 1011.6 991.5
14 18.06 Ю 2 н/о н/о +20.0 +10.6 55 +22 +22 комфорт 1011.0 990.9
15 18.06 Ю 3 н/о н/о +19.7 +11.3 58 +21 +21 комфорт 1010.6 990.5
16 18.06 Ю 2 н/о н/о +19.8 +11.1 57 +22 +22 комфорт 1010.2 990.1
17 18.06 Ю 2 н/о н/о +19.5 +10.7 57 +21 +21 комфорт 1009.9 989.8
18 18.06 Ю 2 70 км 9/8 600 м
[Cu med, cong Ac cuf Cc]
+18.0 +11.1 64 +19 +19 1010.0 989.8 +13.4 +21.2
19 18.06 ЮЗ 2 н/о н/о +17.0 +11.1 68 +17 +17 1010.3 990.0
20 18.06 Ю 1 н/о н/о +16.7 +11.0 69 +18 +18 1010.4 990.1
21 18.06 Ю 1 н/о н/о +15.5 +10.9 74 +16 +16 1010.8 990.4
22 18.06 З 1 н/о н/о +13.0 +10.6 85 +13 +13 1011.0 990.5
23 18.06 З 1 н/о н/о +12.0 +10.4 90 +12 +12 1011.2 990.5
00 19.06 СЗ 1 н/о н/о +11.0 +9.7 92 +11 +11 1011.4 990.6
01 19.06 СЗ 1 н/о н/о +10.4 +9.5 94 +10 +10 1011.5 990.8
02 19.06 СВ 1 н/о н/о +10.2 +9.2 94 +10 +10 1011.7 990.9
03 19.06 штиль 0 н/о н/о +9.8 +8.6 92 +9 +9 1011.8 991.0
04 19.06 СВ 1 н/о н/о +9.9 +8.8 93 +9 +9 1012.0 991.1
05 19.06 СЗ 1 н/о н/о +12.5 +9.3 81 +13 +13 1011.8 991.2
06 19.06 В 1 >70 км 6/0 2000 м
[As trans Cc]
+14.2 +9.6 74 +15 +19 1011.7 991.2 +9.7 +18.0
07 19.06 В 1 н/о н/о +15.3 +9.8 70 +16 +16 1011.4 991.0
08 19.06 СВ 1 н/о н/о +16.1 +6.5 53 +17 +17 1011.2 990.9
09 19.06 ЮВ 1 н/о н/о +16.7 +5.9 49 +18 +18 1011.3 991.0
10 19.06 ЮВ 1 н/о н/о +17.0 +6.9 51 +18 +18 1011.0 990.7
11 19.06 В 1 н/о н/о +18.1 +6.2 46 +19 +19 1010.8 990.6
12 19.06 В 2 45 км 10/6 1000 м
[Sc As op Cs]
+18.2 +8.7 54 +19 +22 1010.5 990.3
13 19.06 В 3 н/о н/о +18.0 +9.3 57 +18 +18 1010.4 990.2
14 19.06 В 2 н/о н/о +17.8 +9.5 58 +18 +18 1009.8 989.6

 

Местоположение метеостанции Конгсберг Браннстас (Норвегия): широта 59.62 долгота 9.63 высота над уровнем моря 170 м.

В архиве по умолчанию представлена погода в Конгсберг Браннстас за последнюю неделю. Архивные данные за месяц целиком и за предыдущие месяцы, начиная с января 2011 года, Вы можете получить, выбрав интересующий диапазон дат из раскрывающегося списка и нажав кнопку "Ввод!".


*Определитесь, кто Вы:
робот инопланетянин человек

Внимание! Время в таблицах - всемирное. Для получения местного времени необходимо прибавить поправку, которая равна 1 ч.

Смотрите также архив погоды в соседних городах и на ближайших метеорологических станциях:

Погода в Коннеруде (Норвегия) (31 км)
Погода в Драммен Берског (Норвегия) (31 км)
Погода в Санде-Галлеберге (Норвегия) (33 км)
Погода во Гварве (Норвегия) (36 км)
Погода в Аскере (Норвегия) (52 км)
Погода в Веггли (Норвегия) (55 км)
Погода на Гуллхолмене (Норвегия) (57 км)
Погода в Порсгрунне (Норвегия) (59 км)
Погода в Мелсоме (Норвегия) (60 км)
Погода на Гаустатоппене (Норвегия) (60 км)

Пояснения к столбцам:

Ветер - указаны скорость ветра в м/с - средняя за 10 мин, порывы в срок и между сроками (в фигурных скобках) и направление, откуда дует ветер: С - северный, СВ - северо-восточный, В - восточный, ЮВ - юго-восточный, Ю - южный, ЮЗ - юго-западный, З - западный, СЗ - северо-западный.
Видимость - горизонтальная дальность видимости в метрах или километрах. При видимости от 1 до 10 км при отсутствии осадков обычно наблюдается дымка, при ухудшении видимости до 1 км и менее - туман. В сухую погоду видимость может ухудшаться дымом, пылью или мглою.
Явления - указаны атмосферные явления, наблюдавшиеся в срок или в последний час перед сроком; фигурными скобками обозначены явления, наблюдавшиеся между сроками (за 1-3 часа до срока); квадратными скобками обозначены град или гололедные отложения с указанием их диаметра в мм.
Облачность - указаны через наклонную черту общая и нижняя облачность в баллах и высота нижней границы облаков в метрах; квадратными скобками обозначены формы облаков: Ci - перистые, Cs - перисто-слоистые, Cc - перисто-кучевые, Ac - высококучевые, As - высокослоистые, Sc - слоисто-кучевые, Ns - слоисто-дождевые, Cu - кучевые, Cb - кучево-дождевые. Подробнее классификацию облаков см. в Атласе облаков (PDF).
T - Температура воздуха - температура, измеренная на высоте 2 м над землей.
Td - Температура точки росы - температура, при понижении до которой содержащийся в воздухе водяной пар достигнет насыщения.
f - Относительная влажность воздуха - влажноcть воздуха, измеренная на высоте 2 м над землей.
Te - Эффективная температура - температура, которую ощущает одетый по сезону человек в тени. Характеристика душности погоды. При расчете учитывается влияние влажности воздуха и скорости ветра на теплоощущения человека.
Tes - Эффективная температура на солнце - температура, которую ощущает человек, с поправкой на солнечный нагрев. Характеристика знойности погоды. Зависит от высоты солнца над горизонтом, облачности и скорости ветра. Ночью, в пасмурную погоду, а также при ветре 12 м/с и более поправка равна нулю.
P - Атмосферное давление - приведенное к уровню моря атмосферное давление.
Po - Атмосферное давление - измеренное на уровне метеостанции атмосферное давление.
Tmin - Минимальная температура - минимум температуры воздуха на высоте 2 м над землей.
Tmax - Максимальная температура - максимум температуры воздуха на высоте 2 м над землей.
R - Количество осадков - Количество выпавших осадков за период времени, мм. При наведении курсора мыши на число - период времени, за который выпало указанное количество осадков.
R24 - Количество осадков - Количество выпавших осадков за 24 часа, мм.
S - Снежный покров - Высота снежного покрова, см. При наведении курсора мыши на число - состояние снежного покрова и степень покрытия местности в баллах.